Location: Highridge
(54.0333°N, 114.1333°W)
Time: 13:43:47
(UTC+00:00)

Oscar 19 - Pass Details

Date: 01 December 2023
Orbit: 771 x 789 km, 98.9° (Epoch: 01 March)

Event Time Altitude Azimuth Distance (km) Brightness Sun altitude
Rises 00:26:00 0° 203° (SSW) 3,237 14.6 -9.2°
Reaches altitude 10° 00:28:47 10° 218° (SW) 2,315 14.2 -9.6°
Maximum altitude 00:32:44 22° 269° (W) 1,626 13.3 -10.1°
Drops below altitude 10° 00:36:43 10° 321° (NW) 2,330 13.3 -10.7°
Sets 00:39:33 0° 336° (NNW) 3,264 13.9 -11.0°
